Tracking 19638 objects as of 20-Apr-2019
HD Live streaming from Space Station
objects crossing your sky now

COSMOS 1823 DEB

Track COSMOS 1823 DEB now!
10-day predictions


NORAD ID: 18752
Int'l Code: 1987-020AD
Perigee: 1,383.3 km
Apogee: 1,478.1 km
Inclination: 73.9 °
Period: 114.3 minutes
Semi major axis: 7801 km
RCS: 0.0632 m2 (small)
Launch date: February 20, 1987
Source: Commonwealth of Independent States (former USSR) (CIS)
Launch site: PLESETSK MISSILE AND SPACE COMPLEX (PKMTR)

Note: This is SATELLITE DEBRIS
aabbcc
Your satellite tracking list
Your tracking list is empty




NASA's NSSDC Master Catalog

Two Line Element Set (TLE):
1 18752U 87020AD  19110.37211126  .00000038  00000-0  31440-3 0  9991
2 18752  73.9176  98.8709 0060720 324.8374 156.1686 12.59848682440346
Source of the keplerian elements: AFSPC